Date String (YYYY-MM-DD hh:mm:ss) UTC,Instrument flags,absolute air pressure of the measurement (hPa),sample flow rate (lpm),inlet stack bypass flow (lpm),air temperature of the measurement (°C),ambient temperature measured by the external sensor (°C),aerosol sample conditioner tube jacket temperature (°C),OPC LED temperature (°C),internal box temperature (°C),relative humidity of the measurement (%),span deviation,mass concentration of particles derived from Lorenz-Mie calculation of OPC scattering (μg/m³),mass concentration of particles derived from Lorenz-Mie calculation of OPC scattering (μg/m³),mass concentration of particles derived from Lorenz-Mie calculation of OPC scattering (μg/m³)
DateTimeUTC,F1_M11,P_M11,Q1_M11,Q2_M11,T1_M11,T2_M11,T3_M11,T4_M11,T5_M11,U1_M11,ZSPAN_M11,X0_M11,X2_M11,X1_M11
2024-04-14 07:00:00,SystemResetWarning,0828.4,5.00,000.00,026.1,025.4,000.0,034.5,027.9,012.0,0000.0,0012.30,0004.18,0002.90
2024-04-14 07:01:00,SystemResetWarning,0828.4,5.00,000.00,026.1,025.4,000.0,034.5,027.9,012.0,0000.0,0012.45,0004.13,0002.91
2024-04-14 07:02:00,SystemResetWarning,0828.4,5.00,000.00,026.1,025.4,000.0,034.5,027.9,011.9,0000.0,0012.48,0004.13,0002.90
2024-04-14 07:03:00,SystemResetWarning,0828.4,4.99,000.00,026.1,025.4,000.0,034.5,027.9,011.9,0000.0,0012.58,0004.11,0002.88
2024-04-14 07:04:00,SystemResetWarning,0828.4,5.01,000.00,026.1,025.4,000.0,034.5,027.9,012.0,0000.0,0012.46,0004.09,0002.88
2024-04-14 07:05:00,SystemResetWarning,0828.4,5.01,000.00,026.1,025.3,000.0,034.5,027.9,012.0,0000.0,0013.04,0004.07,0002.88
2024-04-14 07:06:00,SystemResetWarning,0828.4,4.99,000.00,026.1,025.4,000.0,034.5,027.9,011.9,0000.0,0012.94,0004.04,0002.87
2024-04-14 07:07:00,SystemResetWarning,0828.4,5.00,000.00,026.1,025.3,000.0,034.5,027.9,011.9,0000.0,0012.18,0004.04,0002.86
2024-04-14 07:08:00,SystemResetWarning,0828.4,5.01,000.00,026.1,025.3,000.0,034.5,027.9,011.8,0000.0,0011.76,0004.02,0002.85
2024-04-14 07:09:00,SystemResetWarning,0828.4,5.01,000.00,026.1,025.3,000.0,034.5,027.9,011.7,0000.0,0013.01,0004.00,0002.83
2024-04-14 07:10:00,SystemResetWarning,0828.4,5.01,000.00,026.1,025.3,000.0,034.5,027.9,011.7,0000.0,0012.97,0004.08,0002.82
2024-04-14 07:11:00,SystemResetWarning,0828.4,5.00,000.00,026.1,025.3,000.0,034.5,027.9,011.7,0000.0,0012.68,0004.12,0002.82
2024-04-14 07:12:00,SystemResetWarning,0828.4,4.98,000.00,026.1,025.3,000.0,034.5,027.9,011.6,0000.0,0013.06,0004.15,0002.80
2024-04-14 07:13:00,SystemResetWarning,0828.4,4.99,000.00,026.1,025.3,000.0,034.5,027.9,011.5,0000.0,0013.82,0004.16,0002.80
2024-04-14 07:14:00,SystemResetWarning,0828.4,5.00,000.00,026.1,025.3,000.0,034.5,027.9,011.5,0000.0,0013.66,0004.16,0002.80
2024-04-14 07:15:00,SystemResetWarning,0828.4,5.00,000.00,026.1,025.3,000.0,034.5,027.9,011.5,0000.0,0014.98,0004.17,0002.79
2024-04-14 07:16:00,SystemResetWarning,0828.4,5.01,000.00,026.1,025.3,000.0,034.5,027.9,011.5,0000.0,0014.90,0004.18,0002.81
2024-04-14 07:17:00,SystemResetWarning,0828.4,5.00,000.00,026.1,025.3,000.0,034.5,027.9,011.5,0000.0,0015.88,0004.24,0002.81
2024-04-14 07:18:00,SystemResetWarning,0828.4,4.99,000.00,026.1,025.3,000.0,034.5,027.8,011.6,0000.0,0016.21,0004.29,0002.81
2024-04-14 07:19:00,SystemResetWarning,0828.4,4.99,000.00,026.1,025.3,000.0,034.5,027.8,011.6,0000.0,0016.00,0004.29,0002.81
2024-04-14 07:20:00,SystemResetWarning,0828.4,4.99,000.00,026.1,025.3,000.0,034.5,027.8,011.6,0000.0,0015.49,0004.29,0002.80
2024-04-14 07:21:00,SystemResetWarning,0828.4,5.00,000.00,026.1,025.3,000.0,034.5,027.8,011.7,0000.0,0015.83,0004.22,0002.80
2024-04-14 07:22:00,SystemResetWarning,0828.4,5.02,000.00,026.1,025.3,000.0,034.5,027.8,011.7,0000.0,0015.96,0004.16,0002.79
2024-04-14 07:23:00,SystemResetWarning,0828.4,4.99,000.00,026.1,025.2,000.0,034.5,027.8,011.8,0000.0,0016.07,0004.17,0002.80
2024-04-14 07:24:00,SystemResetWarning,0828.4,4.98,000.00,026.1,025.3,000.0,034.5,027.8,011.8,0000.0,0015.26,0004.15,0002.78
2024-04-14 07:25:00,SystemResetWarning,0828.4,5.00,000.00,026.1,025.3,000.0,034.5,027.8,011.6,0000.0,0015.20,0004.18,0002.80
2024-04-14 07:26:00,SystemResetWarning,0828.4,5.00,000.00,026.1,025.2,000.0,034.5,027.8,011.6,0000.0,0013.99,0004.22,0002.80
2024-04-14 07:27:00,SystemResetWarning,0828.4,5.00,000.00,026.1,025.3,000.0,034.5,027.8,011.7,0000.0,0013.61,0004.25,0002.79
2024-04-14 07:28:00,SystemResetWarning,0828.4,5.00,000.00,026.0,025.3,000.0,034.5,027.8,011.7,0000.0,0013.37,0004.25,0002.80
2024-04-14 07:29:00,SystemResetWarning,0828.4,5.00,000.00,026.0,025.3,000.0,034.5,027.8,011.7,0000.0,0013.57,0004.25,0002.80
2024-04-14 07:30:00,SystemResetWarning,0828.4,5.00,000.00,026.0,025.3,000.0,034.5,027.8,011.7,0000.0,0014.03,0004.32,0002.80
2024-04-14 07:31:00,SystemResetWarning,0828.4,5.00,000.00,026.0,025.3,000.0,034.5,027.8,011.7,0000.0,0013.52,0004.37,0002.80
2024-04-14 07:32:00,SystemResetWarning,0828.4,5.00,000.00,026.0,025.3,000.0,034.5,027.8,011.7,0000.0,0012.84,0004.34,0002.79
2024-04-14 07:33:00,SystemResetWarning,0828.4,5.00,000.00,026.0,025.3,000.0,034.5,027.8,011.8,0000.0,0012.34,0004.37,0002.80
2024-04-14 07:34:00,SystemResetWarning,0828.3,5.00,000.00,026.0,025.3,000.0,034.5,027.8,011.7,0000.0,0012.24,0004.38,0002.79
2024-04-14 07:35:00,SystemResetWarning,0828.3,5.00,000.00,026.0,025.3,000.0,034.5,027.8,011.7,0000.0,0012.42,0004.42,0002.80
2024-04-14 07:36:00,SystemResetWarning,0828.3,5.00,000.00,026.0,025.3,000.0,034.5,027.8,011.7,0000.0,0012.83,0004.41,0002.79
2024-04-14 07:37:00,SystemResetWarning,0828.4,5.01,000.00,026.0,025.3,000.0,034.5,027.8,011.7,0000.0,0012.76,0004.37,0002.80
2024-04-14 07:38:00,SystemResetWarning,0828.3,5.00,000.00,026.0,025.2,000.0,034.5,027.8,011.7,0000.0,0012.61,0004.36,0002.81
2024-04-14 07:39:00,SystemResetWarning,0828.3,5.00,000.00,026.0,025.2,000.0,034.5,027.8,011.8,0000.0,0013.41,0004.40,0002.81
2024-04-14 07:40:00,SystemResetWarning,0828.3,5.00,000.00,026.0,025.2,000.0,034.5,027.8,011.7,0000.0,0013.18,0004.40,0002.82
2024-04-14 07:41:00,SystemResetWarning,0828.2,5.00,000.00,026.0,025.2,000.0,034.5,027.8,011.8,0000.0,0012.61,0004.37,0002.83
2024-04-14 07:42:00,SystemResetWarning,0828.3,4.99,000.00,026.0,025.2,000.0,034.5,027.8,011.8,0000.0,0012.46,0004.33,0002.81
2024-04-14 07:43:00,SystemResetWarning,0828.3,5.00,000.00,026.0,025.2,000.0,034.5,027.8,011.8,0000.0,0012.91,0004.33,0002.81
2024-04-14 07:44:00,SystemResetWarning,0828.3,5.00,000.00,026.0,025.2,000.0,034.5,027.8,011.8,0000.0,0014.18,0004.33,0002.79
2024-04-14 07:45:00,SystemResetWarning,0828.3,5.00,000.00,026.0,025.2,000.0,034.5,027.8,011.7,0000.0,0014.65,0004.35,0002.80
2024-04-14 07:46:00,SystemResetWarning,0828.2,5.00,000.00,026.0,025.2,000.0,034.5,027.8,011.7,0000.0,0013.94,0004.28,0002.80
2024-04-14 07:47:00,SystemResetWarning,0828.2,5.00,000.00,026.0,025.2,000.0,034.5,027.8,011.7,0000.0,0013.75,0004.22,0002.80
2024-04-14 07:48:00,SystemResetWarning,0828.2,5.00,000.00,026.0,025.2,000.0,034.5,027.8,011.7,0000.0,0013.93,0004.25,0002.80
2024-04-14 07:49:00,SystemResetWarning,0828.2,5.00,000.00,026.0,025.2,000.0,034.4,027.8,011.7,0000.0,0014.14,0004.29,0002.80
2024-04-14 07:50:00,SystemResetWarning,0828.2,5.01,000.00,026.0,025.2,000.0,034.5,027.8,011.7,0000.0,0013.26,0004.27,0002.81
2024-04-14 07:51:00,SystemResetWarning,0828.2,5.00,000.00,026.0,025.2,000.0,034.4,027.8,011.7,0000.0,0012.81,0004.25,0002.80
2024-04-14 07:52:00,SystemResetWarning,0828.2,5.00,000.00,026.0,025.2,000.0,034.4,027.8,011.7,0000.0,0012.91,0004.27,0002.81
2024-04-14 07:53:00,SystemResetWarning,0828.2,4.99,000.00,026.0,025.2,000.0,034.5,027.8,011.6,0000.0,0013.89,0004.33,0002.82
2024-04-14 07:54:00,SystemResetWarning,0828.2,5.00,000.00,026.0,025.2,000.0,034.5,027.8,011.6,0000.0,0013.67,0004.38,0002.84
2024-04-14 07:55:00,SystemResetWarning,0828.2,5.00,000.00,026.0,025.2,000.0,034.4,027.8,011.5,0000.0,0012.78,0004.42,0002.85
2024-04-14 07:56:00,SystemResetWarning,0828.2,5.00,000.00,026.0,025.2,000.0,034.4,027.8,011.5,0000.0,0012.45,0004.41,0002.86
2024-04-14 07:57:00,SystemResetWarning,0828.1,4.99,000.00,026.0,025.2,000.0,034.4,027.8,011.5,0000.0,0012.49,0004.41,0002.87
2024-04-14 07:58:00,SystemResetWarning,0828.1,5.01,000.00,026.0,025.2,000.0,034.4,027.8,011.5,0000.0,0012.68,0004.47,0002.91
2024-04-14 07:59:00,SystemResetWarning,0828.1,5.01,000.00,026.0,025.2,000.0,034.4,027.7,011.4,0000.0,0012.49,0004.51,0002.94
